sat.trackr.live / text

‹ back to catalog

STARLINK-34206

NORAD 66098 · 2025-236N

PAYLOAD ACTIVE UNKNOWN

§ Identity

Operator
Country
US
Launch date
2025-10-19
Launch site
AFWTR
Launch vehicle
Mass (kg)
RCS (m²)

Purposes: comms

External: N2YO · Heavens-Above · Gunter

§ Orbital elements

Epoch: 2026-05-25T03:55:57.217152Z

Period
93.85 min
Inclination
53.1605°
Eccentricity
0.0001321
Mean motion
15.34402514 rev/d
Perigee alt
461.8 km
Apogee alt
463.6 km
Semi-major
6,840.8 km
B*
7.6026e-4
RAAN
108.6248°
Arg perigee
77.3757°
Mean anomaly
282.7393°
Rev number
3,464

§ Raw data

STARLINK-342061 66098U 25236N   26145.16385668  .00025399  00000+0  76026-3 0  99992 66098  53.1605 108.6248 0001321  77.3757 282.7393 15.34402514 34643

JSON: /api/v1/satellites/66098 · /tle

For live sub-satellite position, see the globe view (requires WebGL).

§ Visibility from observer

Set your observer location to see the next 7 days of passes ≥ 10°. The values pass through the URL so the page stays shareable.

No JS? Fill the form by hand. The geolocation button needs JavaScript.